TimeCST,TemperatureF,Dew PointF,Humidity,Sea Level PressureIn,VisibilityMPH,Wind Direction,Wind SpeedMPH,Gust SpeedMPH,PrecipitationIn,Events,Conditions,WindDirDegrees,DateUTC
12:53 AM,39.9,35.1,83,30.40,10.0,North,5.8,-,N/A,,Clear,360,2012-11-13 06:53:00
1:53 AM,39.0,34.0,82,30.40,10.0,North,5.8,-,N/A,,Clear,360,2012-11-13 07:53:00
2:53 AM,37.9,33.1,83,30.41,10.0,North,6.9,-,N/A,,Clear,10,2012-11-13 08:53:00
3:53 AM,37.9,32.0,79,30.42,10.0,North,5.8,-,N/A,,Clear,360,2012-11-13 09:53:00
4:53 AM,37.9,30.9,76,30.42,10.0,North,8.1,-,N/A,,Clear,10,2012-11-13 10:53:00
5:53 AM,37.0,30.0,76,30.44,10.0,North,8.1,-,N/A,,Clear,10,2012-11-13 11:53:00
6:53 AM,37.0,28.9,73,30.44,10.0,NNE,8.1,-,N/A,,Clear,20,2012-11-13 12:53:00
7:53 AM,41.0,27.0,57,30.44,10.0,NNE,8.1,-,N/A,,Clear,20,2012-11-13 13:53:00
8:53 AM,45.0,25.0,46,30.45,10.0,NE,13.8,18.4,N/A,,Clear,40,2012-11-13 14:53:00
9:53 AM,48.9,26.1,41,30.44,10.0,NNE,11.5,18.4,N/A,,Clear,30,2012-11-13 15:53:00
10:53 AM,51.1,26.1,38,30.42,10.0,Variable,5.8,16.1,N/A,,Clear,0,2012-11-13 16:53:00
11:53 AM,53.1,26.1,35,30.38,10.0,North,12.7,21.9,N/A,,Clear,10,2012-11-13 17:53:00
12:53 PM,55.9,28.0,34,30.34,10.0,NNE,9.2,-,N/A,,Clear,30,2012-11-13 18:53:00
1:53 PM,55.9,25.0,30,30.31,10.0,NNE,9.2,18.4,N/A,,Clear,30,2012-11-13 19:53:00
2:53 PM,57.9,26.1,30,30.30,10.0,North,12.7,-,N/A,,Clear,10,2012-11-13 20:53:00
3:53 PM,55.0,27.0,34,30.29,10.0,NNE,6.9,-,N/A,,Clear,20,2012-11-13 21:53:00
4:53 PM,53.1,30.0,41,30.30,10.0,North,6.9,-,N/A,,Clear,360,2012-11-13 22:53:00
5:53 PM,51.1,30.9,46,30.31,10.0,North,5.8,-,N/A,,Clear,10,2012-11-13 23:53:00
6:53 PM,48.9,30.9,50,30.33,10.0,North,3.5,-,N/A,,Clear,360,2012-11-14 00:53:00
7:53 PM,44.1,34.0,68,30.35,10.0,NW,3.5,-,N/A,,Clear,320,2012-11-14 01:53:00
8:53 PM,43.0,35.1,74,30.34,10.0,North,3.5,-,N/A,,Clear,360,2012-11-14 02:53:00
9:53 PM,45.0,33.1,63,30.33,10.0,North,4.6,-,N/A,,Clear,10,2012-11-14 03:53:00
10:53 PM,44.1,33.1,65,30.32,10.0,North,4.6,-,N/A,,Clear,360,2012-11-14 04:53:00
11:53 PM,44.1,32.0,63,30.30,10.0,North,5.8,-,N/A,,Clear,10,2012-11-14 05:53:00